Location: Unspecified
(48.5670°N, 0.0000°E)
Time: 01:11:05
(UTC+00:00)

Vanguard 2 Rocket - Pass Details

Date: 31 August 2019
Orbit: 554 x 3327 km, 32.9° (Epoch: 17 October)

Event Time Altitude Azimuth Distance (km) Brightness Sun altitude
Rises 03:52:02 0° 256° (WSW) 4,742 - -13.5°
Reaches altitude 10° 03:54:58 10° 248° (WSW) 4,086 - -13.1°
Exits shadow 03:56:26 15° 243° (WSW) 3,811 9.4 -12.9°
Maximum altitude 04:05:28 39° 185° (S) 3,318 9.5 -11.6°
Drops below altitude 10° 04:21:20 10° 127° (SE) 6,089 11.5 -9.2°
Sets 04:26:56 0° 121° (ESE) 7,266 12.1 -8.4°
